Regional Weather Roundup
Issued by NWS

Home | Current Version | Previous Version | Text Only | Print | Product List | Glossary On
Versions: 1 2 3 4 5 6 7 8 9 10 11 12 13 14 15 16 17 18 19 20 21 22 23 24 25 26 27 28 29 30 31 32 33 34 35 36 37 38 39 40 41 42 43 44 45 46 47 48 49 50
000
ASMX46 KSGX 281711
RWRMX

MEXICAN WEATHER ROUNDUP
NATIONAL WEATHER SERVICE SAN DIEGO CA
1000 AM PDT SUN AUG 28 2016

BAJA CALIFORNIA

CITY           SKY/WX    TMP DP  RH WIND       PRES   REMARKS
ENSENADA NW      N/A     70  32  24 CALM      29.99R
LA PAZ         SUNNY     88  63  42 CALM      29.91F
LORETO         SUNNY     90  70  51 NE7       29.88R HX  95
MEXICALI       SUNNY     88  59  37 CALM      29.94R
S.J. DEL CABO  SUNNY     91  66  43 NW3       29.91S
TIJUANA        MOSUNNY   70  57  64 NW8       30.04R

NORTHWESTERN MEXICO

CITY           SKY/WX    TMP DP  RH WIND       PRES   REMARKS
CHIHUAHUA      PTSUNNY   73  57  56 CALM      30.20F
CULIACAN       MOSUNNY   84  73  70 N6        29.88F
GUAYMAS        SUNNY     97  63  32 CALM      29.85F HX  98
HERMOSILLO     SUNNY     93  55  27 CALM      29.95F
JUAREZ         MOSUNNY   77  61  57 N5        30.10S
LOS MOCHIS     SUNNY     90  72  55 CALM      29.89S HX  96
OBREGON        SUNNY     90  73  58 N3        29.87S HX  98

NORTHEASTERN MEXICO

CITY           SKY/WX    TMP DP  RH WIND       PRES   REMARKS
MATAMOROS      PTSUNNY   90  72  55 N9        29.95S HX  96
MONCLOVA       PTSUNNY   84  64  51 N8        30.03
MONTERREY      MOSUNNY   86  68  54 E6        30.00F
NUEVO LAREDO   MOSUNNY   88  72  58 CALM      29.99F
PIEDRAS NEGRAS MOSUNNY   88  72  58 E6        30.04R
REYNOSA        MOSUNNY   90  68  48 W2        29.96S
SALTILLO       SUNNY     84  61  45 CALM      30.24F
TORREON        MOSUNNY   79  64  61 CALM      30.15S
VICTORIA       SUNNY     90  68  48 CALM      29.97F

WESTERN MEXICO

CITY           SKY/WX    TMP DP  RH WIND       PRES   REMARKS
AGUASCALIENTES PTSUNNY   68  54  60 NE2       30.31S
COLIMA           N/A    N/A N/A N/A MISG        N/A
DURANGO        MOSUNNY   68  59  73 NE5       30.28S
GUADALAJARA    PTSUNNY   73  63  68 CALM      30.21F
MANZANILLO     MOSUNNY   88  79  74 SE12      29.85S HX 102
MAZATLAN       PTSUNNY   88  77  70 W3        29.88S HX 100
PTO. VALLARTA  SUNNY     88  77  70 SW7       29.87S HX 100
TEPIC          MOSUNNY   81  66  61 CALM      30.05S
URUAPAN        MOSUNNY   72  64  78 CALM      30.21S
ZACATECAS      MOSUNNY   68  57  68 CALM      30.32S

CENTRAL MEXICO

CITY           SKY/WX    TMP DP  RH WIND       PRES   REMARKS
CUERNAVACA     MOSUNNY   77  64  65 CALM      30.18R
LEON           MOSUNNY   73  59  60 SE7       30.33
MEXICO CITY      N/A    N/A N/A N/A MISG        N/A
MORELIA        PTSUNNY   66  57  72 CALM      30.29R
POZA RICA      MOSUNNY   88  77  70 CALM      30.01F HX 100
PUEBLA         MOSUNNY   72  50  46 E9        30.36S
QUERETARO      PTSUNNY   66  57  72 E9        30.35F
S. LUIS POTOSI PTSUNNY   72  48  43 SE9       30.28F
TAMPICO        MOSUNNY   86  73  66 CALM      29.96S
TOLUCA         PTSUNNY   59  52  77 CALM      30.45R FOG
VERACRUZ       MOSUNNY   86  77  74 S3        29.95F HX  97

SOUTHERN MEXICO

CITY           SKY/WX    TMP DP  RH WIND       PRES   REMARKS
ACAPULCO       CLOUDY    84  77  79 E6        29.92S
B. DE HUATULCO PTSUNNY   82  72  69 W12       29.99
MINATITLAN     PTSUNNY   88  68  51 CALM      29.86F
OAXACA         MOSUNNY   72  55  56 SE2       30.25F
PTO. ESCONDIDO CLOUDY    86  77  74 SW7       30.03R HX  97
TAPACHULA      MOSUNNY   86  79  79 SW7       29.86F HX  99
TUX. GUTIERREZ PTSUNNY   77  70  78 W7        29.99F
VILLAHERMOSA   PTSUNNY   84  79  84 S5        29.94S HX  96
ZIHUATANEJO    MOSUNNY   90  77  66 S6        29.92S HX 102

YUCATAN PENINSULA

CITY           SKY/WX    TMP DP  RH WIND       PRES   REMARKS
CAMPECHE       MOSUNNY   88  79  74 W12       29.87F HX 102
CANCUN         PTSUNNY   90  77  66 NE2       29.89F HX 102
CHETUMAL       MOSUNNY   90  77  66 CALM      29.90F HX 102
C. DEL CARMEN  PTSUNNY   88  73  62 CALM      29.91R HX  96
COZUMEL        MOSUNNY   86  79  79 N7        29.90F HX  99
MERIDA         PTSUNNY   91  73  55 CALM      29.91F HX 100

$$




USA.gov is the U.S. government's official web portal to all federal, state and local government web resources and services.